Regional Weather Roundup
Issued by NWS Cleveland, OH

Home | Current Version | Previous Version | Graphics & Text | Print | Product List | Glossary On
Versions: 1 2 3 4 5 6 7 8 9 10 11 12 13 14 15 16 17 18 19 20 21 22 23 24 25 26 27 28 29 30 31 32 33 34 35 36 37 38 39 40 41 42 43 44 45 46 47 48 49 50
000
ASUS41 KCLE 251210
RWRCLE
OHIO REGIONAL WEATHER ROUNDUP
NATIONAL WEATHER SERVICE CLEVELAND, OH
800 AM EDT TUE APR 25 2017

NOTE: "FAIR" INDICATES FEW OR NO CLOUDS BELOW 12,000 FEET WITH NO
SIGNIFICANT WEATHER AND/OR OBSTRUCTIONS TO VISIBILITY.

OHZ001>008-015>018-024>027-034-035-043-044-251300-
   NORTHWEST OHIO

CITY           SKY/WX    TMP DP  RH WIND       PRES   REMARKS
DEFIANCE       CLOUDY    52  47  83 E5        29.84S
FINDLAY        CLOUDY    56  46  69 E8        29.84S
TOLEDO EXPRESS CLOUDY    54  48  80 E7        29.85S
TOLEDO EXEC    CLOUDY    54  51  90 E6        29.86S
LIMA           CLOUDY    53  49  86 E8        29.83S
$$

OHZ009>014-019>023-028>033-038-089-251300-
   NORTHEAST OHIO

CITY           SKY/WX    TMP DP  RH WIND       PRES   REMARKS
CLE-HOPKINS    CLOUDY    57  45  64 SE10      29.90R
CLE-LAKEFRONT  LGT RAIN  55  47  74 SE16G22   29.87R
CUY CO. ARPT   LGT RAIN  55  48  76 SE13      29.90R
LORAIN-ELYRIA  CLOUDY    55  44  66 SE13G22   29.88R
ASHTABULA      CLOUDY    54  42  64 SE7       29.94R
AKRON-CANTON   LGT RAIN  53  47  79 SE9       29.90R
WOOSTER        CLOUDY    53  46  77 SE14      29.89R
MANSFIELD      CLOUDY    53  47  79 SE14      29.86R
YOUNGSTOWN     LGT RAIN  52  44  74 E9        29.93S
$$

OHZ042-051>053-060>062-070>072-077>081-251300-
  SOUTHWEST OHIO

CITY           SKY/WX    TMP DP  RH WIND       PRES   REMARKS
CINC-COVINGTON MOSUNNY   55  51  86 E7        29.81R
CINC-LUNKEN    SUNNY     53  52  96 CALM      29.83R
HAMILTON       SUNNY     54  51  90 E3        29.83R
DAYTON         MOSUNNY   52  48  86 E6        29.83S
WRIGHT-PAT AFB MOSUNNY   51  51 100 N3        29.83S
DAYTON GENERAL SUNNY     51  48  89 NE5       29.81S
WILMINGTON     CLOUDY    53  50  89 E9        29.82R
$$

OHZ036-037-039>041-045>050-054>059-063>069-073>076-082>088-251300-
  CENTRAL AND SOUTHEAST OHIO

CITY           SKY/WX    TMP DP  RH WIND       PRES   REMARKS
COLUMBUS       CLOUDY    56  48  74 E13       29.83S
OSU AIRPORT    CLOUDY    55  49  80 E6        29.84R
BOLTON FIELD   CLOUDY    55  48  77 E3        29.84S
RICKENBACK AFB CLOUDY    54  48  80 E8        29.83S
NEWARK         CLOUDY    56  47  71 E5        29.85R
MARION         CLOUDY    55  46  71 SE7       29.86R
LANCASTER      CLOUDY    56  48  74 VRB5      29.85R
ZANESVILLE     CLOUDY    54  48  80 NE6       29.86R
NEW PHILLY     NOT AVBL
$$



USA.gov is the U.S. government's official web portal to all federal, state and local government web resources and services.